Wind_Speed
29 29 28 29 30 31 31 32 31 31 29 30 29 28 30 29 33 30 28 24 25 25 23 21 18 15 12 9 15 9 5 8 3 3 5 6 7 5 3 2 2 3 2 3 6 10 13
28 30 28 29 33 36 35 34 33 34 33 31 32 29 29 30 29 30 31 26 24 23 23 21 18 16 13 9 15 15 17 15 10 5 5 5 4 7 3 2 2 2 4 8 8 15 10
29 29 29 31 32 34 36 37 37 37 37 36 34 36 31 29 30 26 30 29 23 21 22 20 19 17 19 26 9 10 12 11 12 9 6 6 6 5 5 0 0 1 5 7 8 4 7
29 29 31 32 33 31 32 34 36 37 38 39 39 36 35 30 26 30 30 26 21 20 18 20 18 18 16 20 25 25 11 11 11 8 6 7 5 4 3 0 3 1 2 4 1 4 2
29 31 34 36 36 34 31 33 35 38 39 41 42 39 40 32 30 32 27 29 21 19 19 20 17 15 13 13 27 28 25 19 13 7 8 8 5 4 4 3 2 4 4 4 7 2 2
30 30 33 35 37 40 35 34 35 38 42 43 43 43 40 37 31 29 29 26 22 20 22 21 15 5 21 11 19 22 26 26 20 12 9 6 3 3 3 6 9 6 4 4 7 1 2
32 33 35 35 41 40 38 38 37 37 41 42 43 42 42 40 33 31 33 27 23 14 34 27 14 15 0 6 11 12 22 23 19 16 9 5 6 13 17 12 3 5 3 6 5 4 7
34 36 36 39 40 38 39 41 38 35 37 41 41 42 43 41 35 32 32 35 40 18 9 30 22 27 22 1 6 15 15 17 16 15 10 5 17 14 7 9 10 7 8 11 14 11 6
33 37 37 42 41 40 43 45 41 37 36 41 40 42 42 41 35 33 35 47 33 19 7 18 38 27 13 27 9 13 19 12 10 14 20 19 6 16 13 9 10 9 11 8 11 9 8
34 39 40 41 40 40 42 46 46 41 37 40 42 41 42 41 35 40 40 51 32 20 4 11 16 27 34 11 9 30 27 13 6 19 11 13 11 8 14 15 13 10 12 10 9 5 8
36 38 43 39 38 38 37 35 36 38 36 39 43 42 44 48 38 37 50 47 42 31 9 14 19 15 31 31 12 21 28 15 9 9 9 10 10 19 15 9 16 7 6 9 4 6 4
36 36 41 36 37 34 34 26 25 33 35 37 41 42 45 45 46 42 41 49 41 9 13 11 15 20 19 31 24 14 23 16 9 8 4 7 3 9 8 6 18 9 7 4 3 2 8
35 35 37 37 35 32 31 26 23 33 33 37 37 43 49 48 57 48 32 52 14 13 11 14 12 21 24 18 27 14 18 21 11 10 12 5 8 3 5 7 10 10 9 2 3 4 10
35 35 36 38 37 35 34 21 29 33 34 36 38 42 49 52 48 40 39 17 19 18 23 14 16 22 22 18 21 27 20 19 23 10 9 14 10 15 9 7 10 18 11 6 8 5 7
34 34 36 35 35 35 30 21 19 37 36 36 38 48 51 50 48 45 36 18 11 27 29 18 23 22 15 17 13 23 29 29 23 22 15 11 11 7 10 6 12 7 11 8 5 4 7
33 34 35 33 35 33 28 22 12 29 32 35 43 43 48 53 51 40 8 27 6 15 24 22 18 13 19 26 15 23 25 22 21 28 13 7 4 6 15 14 15 9 12 4 3 6 9
30 33 33 34 33 32 27 20 13 12 27 35 38 20 29 46 38 21 11 8 18 25 23 24 16 10 14 22 19 24 26 10 30 23 21 5 4 2 11 12 19 8 8 5 6 5 6
27 31 32 33 32 32 28 19 12 1 25 35 20 7 21 39 10 3 7 8 12 15 35 22 10 5 15 22 20 19 19 24 28 22 29 21 4 6 10 1 8 20 17 13 7 7 6
29 31 32 32 31 28 31 26 17 10 11 39 17 6 19 33 9 13 4 9 16 18 17 27 7 5 10 16 11 16 18 13 14 25 22 20 7 6 4 7 4 13 14 16 13 2 15
29 30 33 33 33 29 30 35 20 17 14 23 9 4 7 22 11 12 10 12 20 18 20 13 14 9 8 12 4 19 9 3 18 28 18 27 5 20 17 5 10 10 20 17 18 10 22
30 31 33 35 35 34 34 37 25 24 26 12 12 5 7 5 9 12 23 15 21 9 22 8 5 16 10 8 14 8 12 5 5 17 11 13 15 14 15 2 9 12 18 21 20 25 13
30 30 34 34 34 35 38 43 29 33 37 19 9 6 8 2 8 18 17 21 29 28 13 21 12 12 6 10 9 10 14 6 7 3 14 3 4 7 12 12 9 4 11 25 26 24 22
31 31 33 34 33 35 40 43 26 33 51 13 16 13 7 6 5 13 10 15 25 25 8 34 13 13 5 3 10 13 11 10 11 14 14 11 6 4 8 6 6 4 22 19 14 20 18
32 31 32 32 31 33 38 43 19 23 60 27 28 14 5 3 8 11 17 13 24 25 17 14 18 11 6 25 21 16 18 12 9 7 5 8 8 3 5 4 14 18 9 18 21 21 20
32 32 31 30 28 29 33 41 19 40 29 20 17 15 5 3 3 15 20 24 22 24 4 14 6 14 27 8 4 4 3 2 3 7 6 3 5 3 6 10 17 14 9 9 14 25 20
30 32 31 27 24 24 28 36 16 22 21 17 11 13 5 1 3 10 20 20 11 19 12 6 16 22 11 3 3 7 9 5 5 5 10 9 4 3 4 8 10 8 7 14 8 20 16
29 29 29 24 21 21 21 27 33 1 28 22 23 15 5 4 5 8 1 12 9 11 11 2 11 6 19 3 3 5 10 1 9 11 9 7 9 16 10 7 6 7 4 13 11 5 12
29 28 26 22 19 18 17 21 21 19 10 30 20 13 13 5 3 5 5 1 6 14 7 8 10 3 5 8 5 4 4 6 6 7 6 10 9 5 6 8 15 14 12 18 7 4 16
27 26 23 20 17 15 14 17 18 23 4 12 8 18 19 5 4 7 16 15 6 13 19 18 6 6 6 4 3 3 3 4 7 6 6 6 7 7 10 7 2 23 11 19 11 9 12
Wind_Direction
302 299 299 297 294 289 278 270 268 269 260 255 257 250 237 242 242 243 250 246 240 235 242 251 257 263 271 253 240 235 263 297 291 195 191 189 191 180 194 187 167 205 277 221 252 281 280
303 303 301 297 292 288 283 274 270 265 263 254 255 252 249 236 241 238 245 238 246 232 236 244 251 256 256 245 255 250 256 259 260 244 208 196 198 197 178 188 190 202 282 276 274 264 251
309 308 299 297 298 292 283 276 271 266 261 256 248 253 250 251 230 242 233 240 242 234 233 237 247 253 252 241 248 244 245 233 234 230 221 205 197 192 170 204 307 264 303 309 230 251 237
307 311 304 297 295 296 287 279 275 267 258 255 251 245 250 246 239 233 231 227 233 231 235 231 239 249 254 256 251 239 226 218 203 215 203 193 190 180 194 172 22 356 107 304 309 172 316
313 307 309 298 288 288 287 278 276 269 261 253 249 244 247 242 244 223 241 219 224 227 231 230 231 233 267 247 246 242 235 231 207 209 193 182 177 175 137 126 346 12 261 247 304 216 151
312 312 309 310 305 293 281 277 270 269 265 256 246 243 240 244 238 230 226 197 203 212 214 212 215 209 244 230 245 240 229 225 223 217 195 198 181 164 134 171 228 187 226 233 250 65 116
314 313 310 304 303 298 285 273 266 265 259 252 243 237 234 238 234 233 210 209 176 198 198 198 202 209 100 221 207 221 222 207 198 198 185 181 202 212 196 204 157 134 196 268 265 224 315
315 314 313 309 305 295 289 279 259 259 255 245 240 233 231 229 226 233 219 209 192 199 194 209 220 217 221 359 211 231 196 170 182 197 150 196 232 222 214 191 212 209 237 259 288 282 200
316 319 315 315 306 295 289 282 269 248 249 241 233 231 226 227 221 228 224 218 196 176 182 209 219 219 225 229 237 223 189 184 186 181 193 205 214 200 196 197 197 222 218 229 255 314 266
320 324 320 320 314 304 301 283 266 245 239 236 228 226 220 219 216 222 221 220 211 188 218 196 200 227 221 220 245 223 203 174 186 201 172 227 212 156 199 221 198 238 212 223 235 274 272
324 330 322 323 328 314 310 292 251 236 232 230 223 221 218 213 206 212 214 205 194 190 211 193 183 189 199 196 141 202 197 198 176 167 171 214 187 200 209 196 183 218 172 193 187 209 310
327 332 328 330 333 319 312 300 256 229 227 224 220 216 214 212 214 224 215 202 205 214 199 156 144 174 158 201 197 155 182 196 186 166 241 215 199 196 207 188 171 146 125 107 84 158 259
331 333 334 335 338 337 316 280 261 231 227 220 217 211 209 207 211 214 212 200 213 208 156 152 162 172 173 178 198 177 184 192 178 180 202 187 218 206 167 121 166 166 140 192 220 191 249
335 333 339 342 342 337 325 288 256 231 224 216 213 207 206 212 214 212 205 201 231 173 193 147 152 169 184 157 200 193 184 195 213 205 182 203 222 190 182 177 170 190 179 182 206 206 276
338 339 339 345 346 346 329 319 286 220 217 209 205 205 204 212 210 206 206 219 218 163 186 149 146 161 197 183 164 182 200 203 198 200 205 188 229 174 188 176 150 179 217 217 269 224 275
340 340 341 343 348 356 338 345 324 205 203 199 193 191 200 207 207 211 221 219 216 212 187 165 165 180 174 179 167 184 188 209 207 201 200 196 206 199 189 195 222 199 139 166 211 217 234
336 340 342 344 348 351 346 341 22 213 193 186 183 187 203 202 204 216 222 221 224 255 254 196 179 154 174 171 182 185 191 188 195 192 198 166 188 116 150 203 185 174 194 200 168 191 220
333 340 341 343 346 348 350 328 333 20 201 192 182 175 191 194 195 187 237 191 202 248 238 208 190 131 163 173 176 183 193 199 192 177 192 200 140 185 197 135 208 211 204 176 192 194 232
338 338 340 341 342 342 342 336 297 255 247 189 145 134 166 186 204 216 215 204 197 216 233 209 204 146 168 165 167 185 200 197 176 181 185 180 205 189 234 263 186 213 209 211 216 108 218
338 339 339 339 339 339 336 335 315 241 227 198 141 140 183 186 206 216 202 202 203 233 234 198 203 156 146 170 175 188 181 161 188 190 180 166 160 208 213 208 155 196 202 205 198 215 238
339 338 340 339 338 337 333 328 308 241 214 219 175 189 152 189 220 208 205 183 197 209 215 203 187 194 176 160 186 171 172 131 109 186 167 170 210 205 223 76 181 203 193 198 198 218 205
335 337 339 339 337 337 333 332 309 242 200 208 151 152 166 203 169 190 210 203 193 203 189 215 175 188 155 163 197 175 160 156 164 110 175 177 187 170 228 220 218 221 218 219 213 222 232
337 338 339 339 339 340 338 344 299 236 187 178 169 161 155 165 213 193 205 198 193 174 229 205 187 171 106 122 108 93 92 101 145 163 176 165 150 143 229 175 160 229 231 231 225 232 231
339 338 339 339 343 346 346 353 347 192 179 180 171 153 140 257 205 221 197 201 183 182 177 178 178 159 155 119 96 81 68 72 75 81 113 153 172 133 222 97 242 247 253 238 235 235 233
344 342 340 339 347 352 356 2 40 155 161 176 178 194 152 270 225 209 196 189 198 188 151 168 137 147 134 101 81 70 39 73 177 176 165 131 127 158 207 234 261 293 237 204 199 245 230
349 344 341 341 351 359 5 7 40 180 168 181 192 211 208 1 255 272 187 185 175 196 190 122 114 147 136 82 99 199 190 152 183 173 181 166 114 179 133 230 238 245 228 203 190 257 209
349 346 340 344 353 3 13 9 14 116 195 207 218 212 226 256 265 326 80 170 148 150 194 113 167 132 161 126 144 181 217 208 221 224 222 201 202 215 207 224 254 225 202 144 183 263 204
348 349 342 344 357 2 18 21 17 14 210 204 217 202 229 252 336 23 45 28 125 150 155 154 139 152 153 187 185 168 166 187 163 172 181 171 172 186 200 220 248 155 172 200 212 202 196
348 348 345 352 3 4 17 30 33 21 40 184 176 227 213 223 317 80 70 64 104 174 166 169 144 161 154 140 175 154 167 155 167 197 189 195 190 181 192 206 169 186 205 203 187 191 197
Height
1468 1467 1465 1464 1463 1462 1461 1461 1462 1463 1465 1468 1469 1472 1476 1481 1484 1489 1493 1497 1500 1504 1508 1511 1513 1515 1516 1516 1512 1513 1514 1515 1516 1514 1515 1516 1517 1518 1519 1520 1522 1522 1521 1521 1520 1520 1518
1462 1460 1459 1457 1456 1455 1454 1454 1455 1456 1458 1461 1463 1466 1470 1473 1479 1484 1487 1492 1496 1499 1504 1508 1510 1512 1514 1514 1509 1510 1511 1514 1515 1514 1514 1515 1516 1517 1518 1519 1520 1521 1520 1519 1518 1516 1515
1456 1453 1451 1449 1447 1446 1445 1445 1447 1448 1450 1453 1456 1459 1463 1468 1471 1478 1483 1488 1492 1496 1501 1505 1508 1509 1508 1503 1506 1507 1509 1510 1512 1514 1513 1514 1516 1517 1516 1517 1519 1519 1519 1514 1511 1512 1512
1451 1446 1443 1439 1437 1436 1436 1435 1436 1438 1441 1445 1448 1453 1455 1460 1465 1472 1477 1484 1490 1494 1498 1502 1504 1505 1498 1500 1502 1503 1507 1508 1510 1511 1513 1514 1515 1516 1516 1518 1518 1519 1520 1518 1509 1510 1509
1445 1441 1435 1431 1428 1427 1426 1426 1427 1428 1431 1435 1439 1444 1448 1454 1460 1464 1472 1479 1486 1491 1496 1499 1502 1502 1496 1493 1494 1500 1502 1506 1508 1510 1512 1513 1514 1515 1516 1518 1521 1523 1519 1522 1513 1507 1508
1437 1433 1429 1425 1421 1417 1416 1416 1417 1418 1420 1423 1428 1435 1440 1447 1453 1458 1468 1473 1481 1488 1492 1495 1497 1504 1491 1486 1489 1492 1495 1500 1505 1508 1511 1512 1513 1513 1516 1515 1516 1519 1520 1521 1517 1507 1508
1430 1426 1422 1419 1413 1408 1405 1405 1405 1406 1408 1412 1418 1425 1432 1439 1447 1454 1461 1466 1472 1483 1479 1475 1478 1481 1479 1481 1486 1486 1489 1494 1501 1505 1506 1509 1510 1506 1505 1505 1510 1513 1517 1516 1508 1505 1507
1423 1418 1413 1408 1403 1398 1394 1391 1392 1395 1397 1402 1408 1415 1423 1431 1440 1448 1453 1453 1450 1456 1473 1474 1477 1479 1479 1479 1482 1484 1486 1490 1493 1495 1503 1509 1499 1498 1505 1509 1510 1513 1517 1516 1507 1502 1506
1415 1409 1403 1397 1390 1385 1381 1378 1377 1381 1386 1391 1398 1406 1415 1423 1435 1442 1442 1446 1454 1457 1466 1468 1469 1474 1476 1480 1479 1478 1483 1483 1485 1491 1491 1491 1488 1493 1501 1505 1510 1511 1513 1514 1512 1504 1498
1407 1400 1392 1385 1377 1370 1364 1360 1361 1367 1373 1379 1387 1397 1407 1419 1433 1430 1433 1442 1451 1455 1459 1455 1460 1459 1469 1475 1472 1473 1477 1481 1484 1483 1492 1492 1488 1492 1496 1496 1501 1509 1504 1506 1510 1515 1509
1399 1391 1383 1374 1365 1357 1351 1341 1344 1352 1360 1368 1376 1387 1399 1407 1412 1420 1416 1433 1446 1451 1449 1429 1438 1445 1449 1461 1459 1462 1471 1476 1476 1480 1485 1478 1483 1484 1488 1487 1493 1498 1499 1503 1508 1512 1512
1391 1384 1376 1367 1358 1349 1342 1338 1338 1343 1351 1359 1367 1378 1390 1400 1408 1407 1421 1428 1435 1430 1410 1412 1420 1430 1442 1447 1451 1457 1463 1470 1472 1477 1477 1475 1477 1478 1475 1481 1486 1492 1499 1505 1510 1510 1508
1385 1378 1369 1360 1351 1342 1336 1331 1331 1336 1342 1350 1359 1369 1380 1390 1384 1402 1415 1422 1404 1387 1382 1401 1410 1418 1421 1432 1445 1446 1455 1461 1461 1473 1474 1477 1474 1473 1473 1481 1487 1486 1494 1511 1514 1515 1491
1380 1372 1364 1354 1345 1336 1328 1323 1322 1327 1335 1343 1352 1362 1369 1375 1391 1399 1409 1406 1368 1369 1373 1373 1393 1411 1414 1423 1429 1433 1447 1451 1452 1451 1455 1466 1473 1465 1464 1464 1475 1480 1481 1489 1495 1498 1473
1375 1367 1359 1350 1342 1332 1324 1317 1310 1315 1326 1336 1347 1353 1362 1370 1382 1394 1395 1371 1361 1361 1359 1365 1391 1403 1412 1411 1415 1428 1429 1429 1432 1440 1446 1457 1458 1451 1453 1456 1459 1483 1483 1471 1481 1488 1489
1371 1364 1356 1347 1339 1331 1323 1316 1308 1304 1320 1331 1339 1348 1352 1364 1376 1380 1374 1367 1373 1361 1353 1355 1361 1377 1389 1396 1405 1411 1421 1413 1423 1428 1436 1441 1451 1445 1447 1456 1455 1457 1463 1481 1485 1486 1484
1368 1361 1353 1346 1337 1329 1324 1317 1314 1319 1323 1330 1336 1342 1347 1358 1372 1372 1362 1370 1368 1363 1360 1355 1351 1369 1372 1384 1390 1400 1401 1405 1412 1421 1433 1435 1439 1451 1445 1444 1444 1459 1460 1463 1463 1469 1462
1364 1357 1351 1344 1337 1329 1323 1320 1317 1316 1323 1329 1331 1338 1344 1352 1364 1359 1354 1355 1358 1362 1362 1352 1351 1356 1363 1373 1383 1391 1391 1389 1395 1408 1422 1421 1437 1446 1439 1436 1435 1435 1434 1443 1450 1464 1461
1359 1353 1347 1341 1336 1329 1323 1320 1318 1316 1316 1323 1326 1334 1343 1349 1349 1357 1359 1356 1354 1357 1355 1349 1349 1348 1357 1364 1379 1380 1382 1385 1388 1399 1403 1416 1430 1442 1444 1438 1434 1433 1433 1435 1438 1453 1444
1357 1350 1343 1337 1330 1326 1322 1316 1313 1315 1313 1315 1322 1330 1338 1340 1343 1349 1352 1346 1351 1353 1354 1345 1346 1346 1354 1361 1360 1372 1377 1381 1384 1388 1398 1404 1415 1411 1407 1408 1413 1430 1425 1429 1433 1448 1426
1353 1346 1339 1332 1326 1318 1314 1311 1306 1306 1312 1314 1314 1320 1321 1329 1336 1338 1341 1336 1339 1345 1345 1341 1343 1340 1343 1358 1358 1364 1368 1381 1384 1386 1396 1400 1403 1407 1402 1408 1406 1406 1413 1420 1426 1414 1429
1350 1343 1337 1329 1322 1314 1307 1294 1289 1290 1301 1308 1308 1313 1321 1323 1324 1331 1328 1325 1327 1337 1334 1337 1336 1337 1341 1348 1346 1354 1354 1368 1372 1389 1390 1398 1405 1405 1405 1406 1408 1413 1412 1405 1403 1406 1409
1347 1341 1334 1326 1318 1310 1299 1283 1268 1268 1286 1290 1299 1305 1310 1315 1316 1318 1313 1312 1314 1324 1333 1331 1333 1334 1343 1346 1348 1354 1356 1360 1363 1372 1383 1392 1400 1407 1403 1401 1413 1423 1402 1400 1402 1399 1400
1345 1338 1331 1324 1315 1307 1295 1277 1255 1252 1269 1283 1293 1303 1308 1306 1308 1306 1305 1309 1309 1313 1319 1324 1326 1330 1346 1346 1351 1357 1362 1367 1369 1373 1377 1388 1394 1403 1400 1412 1409 1383 1385 1387 1391 1390 1393
1343 1336 1329 1321 1314 1306 1296 1283 1270 1269 1277 1289 1295 1301 1304 1302 1300 1296 1299 1304 1308 1309 1313 1315 1327 1329 1339 1345 1357 1367 1372 1373 1374 1375 1378 1380 1391 1404 1396 1397 1388 1388 1382 1386 1385 1375 1377
1341 1334 1328 1319 1313 1307 1299 1290 1283 1284 1288 1292 1295 1298 1302 1304 1296 1293 1290 1293 1296 1303 1314 1320 1325 1333 1338 1352 1360 1356 1354 1360 1373 1372 1377 1383 1388 1393 1405 1398 1386 1366 1371 1375 1380 1373 1362
1340 1333 1326 1319 1313 1308 1302 1295 1289 1285 1289 1293 1294 1297 1299 1301 1293 1281 1279 1283 1288 1295 1306 1316 1325 1334 1340 1353 1356 1358 1355 1353 1362 1364 1371 1380 1382 1383 1391 1388 1381 1366 1373 1376 1384 1361 1353
1338 1332 1324 1319 1314 1309 1305 1300 1295 1291 1288 1291 1293 1296 1297 1292 1289 1288 1285 1284 1286 1294 1303 1312 1324 1329 1335 1344 1349 1352 1351 1357 1360 1360 1363 1364 1372 1375 1383 1380 1372 1360 1372 1366 1354 1353 1353
1336 1331 1325 1318 1315 1311 1307 1304 1299 1293 1289 1290 1291 1290 1294 1294 1294 1291 1291 1289 1290 1291 1297 1306 1308 1318 1326 1334 1342 1344 1345 1350 1346 1350 1358 1357 1349 1354 1357 1354 1348 1350 1349 1349 1352 1352 1351